Location: Chuathbaluk
(61.5726°N, 159.2454°W)
Time: 10:24:50
(UTC+00:00)

TIGRISAT - Visible Passes

Search period start: 17 January 2021 00:00
Search period end: 27 January 2021 00:00
Orbit: 604 x 689 km, 97.7° (Epoch: 16 January)

Date Brightness Start Highest point End Pass type
(mag) Time Alt. Az. Time Alt. Az. Time Alt. Az.
17 Jan ? 14:43:59 10° ENE 14:46:10 14° NE 14:48:21 10° N visible
17 Jan ? 16:17:52 10° SE 16:21:55 44° ENE 16:26:04 10° N visible
17 Jan ? 17:54:43 10° SSW 17:58:43 39° W 18:02:49 10° NNW visible
18 Jan ? 15:08:26 10° E 15:11:22 18° NE 15:14:20 10° N visible
18 Jan ? 16:43:09 10° SSE 16:47:23 66° ENE 16:51:43 10° NNW visible
18 Jan ? 18:20:54 10° SSW 18:24:30 26° W 18:28:09 10° NNW visible
19 Jan ? 15:33:11 10° ESE 15:36:39 24° NE 15:40:10 10° N visible
19 Jan ? 17:08:39 10° SSE 17:12:56 83° WSW 17:17:20 10° NNW visible
20 Jan ? 14:25:01 10° NE 14:26:25 11° NE 14:27:50 10° NNE visible
20 Jan ? 15:58:07 10° ESE 16:01:58 34° ENE 16:05:56 10° N visible
20 Jan ? 17:34:22 10° S 17:38:33 54° W 17:42:52 10° NNW visible
21 Jan ? 14:49:08 10° ENE 14:51:35 15° NE 14:54:02 10° N visible
21 Jan ? 16:23:15 10° SE 16:27:23 49° ENE 16:31:38 10° N visible
21 Jan ? 18:00:19 10° SSW 18:04:16 35° W 18:08:19 10° NNW visible
22 Jan ? 15:13:42 10° E 15:16:48 20° NE 15:19:58 10° N visible
22 Jan ? 16:48:35 10° SSE 16:52:53 73° ENE 16:57:17 10° NNW visible
22 Jan ? 18:26:34 10° SW 18:30:03 24° W 18:33:37 10° NW visible
23 Jan ? 15:38:29 10° ESE 15:42:05 26° NE 15:45:46 10° N visible
23 Jan ? 17:14:08 10° SSE 17:18:26 75° WSW 17:22:52 10° NNW visible
24 Jan ? 14:30:01 10° ENE 14:31:50 12° NE 14:33:38 10° NNE visible
24 Jan ? 16:03:28 10° SE 16:07:27 37° ENE 16:11:32 10° N visible
24 Jan ? 17:39:54 10° S 17:44:05 49° W 17:48:23 10° NNW visible
25 Jan ? 14:54:19 10° E 14:57:00 16° NE 14:59:43 10° N visible
25 Jan ? 16:28:39 10° SE 16:32:52 54° ENE 16:37:13 10° NNW visible
25 Jan ? 18:05:55 10° SSW 18:09:49 32° W 18:13:49 10° NNW visible
26 Jan ? 15:18:56 10° E 15:22:14 21° NE 15:25:36 10° N visible
26 Jan ? 16:54:02 10° SSE 16:58:22 80° ENE 17:02:50 10° NNW visible
